When you browse on this site, cookies collect data to enhance your experience and personalize the content and advertising you see.
Visit our Privacy Policy to learn more. By continuing to use the site, you agree to this use of cookies and data.
  • en France
  • Liste des pays
  • À 7 jours
  • Température de l'eau
  • Carte météo
  • Widgets météo
  • user-avatar
    Se connecter

    Météo par heure à Glogow

    Ce jour, 20 Octobre, Dimanche

    Heure Température Précipitation Vent Pression Humidité
    00:00 +14°C° 0 mm 2 m/s 746 mmHg 89%
    01:00 +14°C° 0 mm 2 m/s 746 mmHg 87%
    02:00 +14°C° 0 mm 2 m/s 746 mmHg 87%
    03:00 +13°C° 0 mm 2 m/s 746 mmHg 86%
    04:00 +13°C° 0 mm 2 m/s 746 mmHg 86%
    05:00 +13°C° 0 mm 2 m/s 746 mmHg 85%
    06:00 +13°C° 0 mm 2 m/s 746 mmHg 83%
    07:00 +14°C° 0 mm 2 m/s 746 mmHg 81%
    08:00 +16°C° 0 mm 2 m/s 746 mmHg 73%
    09:00 +18°C° 0 mm 2 m/s 746 mmHg 65%
    10:00 +20°C° 0 mm 2 m/s 746 mmHg 56%
    11:00 +21°C° 0 mm 2 m/s 746 mmHg 53%
    12:00 +23°C° 0 mm 2 m/s 747 mmHg 50%
    13:00 +24°C° 0 mm 2 m/s 747 mmHg 47%
    14:00 +23°C° 0 mm 2 m/s 746 mmHg 52%
    15:00 +21°C° 0 mm 2 m/s 746 mmHg 56%
    16:00 +20°C° 0 mm 2 m/s 746 mmHg 61%
    17:00 +19°C° 0 mm 2 m/s 746 mmHg 64%
    18:00 +19°C° 0 mm 1 m/s 747 mmHg 67%
    19:00 +18°C° 0 mm 1 m/s 747 mmHg 70%
    20:00 +16°C° 0 mm 1 m/s 747 mmHg 72%
    21:00 +16°C° 0 mm 1 m/s 747 mmHg 73%
    22:00 +14°C° 0 mm 0 m/s 747 mmHg 75%
    23:00 +15°C° 0 mm 1 m/s 747 mmHg 76%

    Demain, 21 Octobre, Lundi

    Heure Température Précipitation Vent Pression Humidité
    00:00 +15°C° 0 mm 1 m/s 747 mmHg 76%
    01:00 +15°C° 0 mm 1 m/s 747 mmHg 77%
    02:00 +14°C° 0 mm 1 m/s 747 mmHg 78%
    03:00 +14°C° 0 mm 1 m/s 747 mmHg 79%
    04:00 +14°C° 0 mm 1 m/s 747 mmHg 81%
    05:00 +14°C° 0 mm 1 m/s 747 mmHg 80%
    06:00 +14°C° 0 mm 1 m/s 747 mmHg 80%
    07:00 +14°C° 0 mm 1 m/s 748 mmHg 79%
    08:00 +16°C° 0 mm 1 m/s 748 mmHg 73%
    09:00 +19°C° 0 mm 1 m/s 748 mmHg 66%
    10:00 +20°C° 0 mm 1 m/s 748 mmHg 60%
    11:00 +21°C° 0 mm 1 m/s 748 mmHg 57%
    12:00 +22°C° 0 mm 1 m/s 749 mmHg 55%
    13:00 +23°C° 0 mm 1 m/s 749 mmHg 52%
    14:00 +22°C° 0 mm 1 m/s 749 mmHg 56%
    15:00 +21°C° 0 mm 1 m/s 749 mmHg 60%
    16:00 +20°C° 0 mm 1 m/s 749 mmHg 64%
    17:00 +19°C° 0 mm 1 m/s 749 mmHg 68%
    18:00 +16°C° 0 mm 0 m/s 750 mmHg 71%
    19:00 +15°C° 0 mm 0 m/s 750 mmHg 74%
    20:00 +15°C° 0 mm 0 m/s 750 mmHg 76%
    21:00 +14°C° 0 mm 0 m/s 750 mmHg 78%
    22:00 +14°C° 0 mm 0 m/s 751 mmHg 79%
    23:00 +14°C° 0 mm 0 m/s 751 mmHg 80%

    Après-demain, 22 Octobre, Mardi

    Heure Température Précipitation Vent Pression Humidité
    00:00 +13°C° 0 mm 0 m/s 751 mmHg 81%
    01:00 +13°C° 0 mm 0 m/s 751 mmHg 82%
    02:00 +13°C° 0 mm 0 m/s 751 mmHg 83%
    03:00 +13°C° 0 mm 0 m/s 751 mmHg 83%
    04:00 +13°C° 0 mm 0 m/s 751 mmHg 84%
    05:00 +13°C° 0 mm 0 m/s 751 mmHg 84%
    06:00 +13°C° 0 mm 0 m/s 752 mmHg 84%
    07:00 +13°C° 0 mm 0 m/s 752 mmHg 84%
    08:00 +15°C° 0 mm 1 m/s 752 mmHg 78%
    09:00 +18°C° 0 mm 1 m/s 752 mmHg 72%
    10:00 +20°C° 0 mm 1 m/s 752 mmHg 66%
    11:00 +20°C° 0 mm 2 m/s 752 mmHg 64%
    12:00 +20°C° 0 mm 2 m/s 752 mmHg 61%
    13:00 +21°C° 0 mm 2 m/s 752 mmHg 59%
    14:00 +20°C° 0 mm 2 m/s 751 mmHg 64%
    15:00 +19°C° 0 mm 2 m/s 751 mmHg 68%
    16:00 +18°C° 0 mm 2 m/s 751 mmHg 72%
    17:00 +17°C° 0 mm 2 m/s 751 mmHg 77%
    18:00 +16°C° 0 mm 2 m/s 751 mmHg 81%
    19:00 +15°C° 0 mm 2 m/s 752 mmHg 85%
    20:00 +15°C° 0 mm 2 m/s 751 mmHg 88%
    21:00 +15°C° 0 mm 2 m/s 751 mmHg 90%
    22:00 +14°C° 0 mm 2 m/s 751 mmHg 92%
    23:00 +14°C° 0 mm 2 m/s 751 mmHg 92%

    23 Octobre, Mercredi

    Heure Température Précipitation Vent Pression Humidité
    00:00 +13°C° 0 mm 2 m/s 751 mmHg 91%
    01:00 +13°C° 0 mm 2 m/s 752 mmHg 91%
    02:00 +12°C° 0 mm 2 m/s 752 mmHg 91%
    03:00 +12°C° 0 mm 2 m/s 752 mmHg 91%
    04:00 +10°C° 0 mm 2 m/s 752 mmHg 90%
    05:00 +10°C° 0 mm 2 m/s 752 mmHg 90%
    06:00 +11°C° 0 mm 1 m/s 752 mmHg 91%
    07:00 +11°C° 0 mm 1 m/s 752 mmHg 91%
    08:00 +12°C° 0 mm 1 m/s 752 mmHg 84%
    09:00 +13°C° 0 mm 1 m/s 752 mmHg 78%
    10:00 +14°C° 0 mm 0 m/s 752 mmHg 71%
    11:00 +15°C° 0 mm 1 m/s 752 mmHg 68%
    12:00 +16°C° 0 mm 1 m/s 751 mmHg 64%
    13:00 +16°C° 0 mm 1 m/s 751 mmHg 61%
    14:00 +16°C° 0 mm 1 m/s 751 mmHg 64%
    15:00 +15°C° 0 mm 1 m/s 751 mmHg 67%
    16:00 +14°C° 0 mm 1 m/s 750 mmHg 70%
    17:00 +14°C° 0 mm 1 m/s 750 mmHg 73%
    18:00 +13°C° 0 mm 2 m/s 750 mmHg 75%
    19:00 +12°C° 0 mm 2 m/s 750 mmHg 78%
    20:00 +12°C° 0 mm 2 m/s 750 mmHg 80%
    21:00 +12°C° 0 mm 2 m/s 750 mmHg 82%
    22:00 +10°C° 0 mm 2 m/s 750 mmHg 84%
    23:00 +10°C° 0 mm 2 m/s 749 mmHg 85%

    24 Octobre, Jeudi

    Heure Température Précipitation Vent Pression Humidité
    00:00 +10°C° 0 mm 3 m/s 749 mmHg 86%
    01:00 +10°C° 0 mm 3 m/s 749 mmHg 88%
    02:00 +9°C° 0 mm 3 m/s 749 mmHg 89%
    03:00 +9°C° 0 mm 3 m/s 748 mmHg 91%
    04:00 +9°C° 0 mm 3 m/s 748 mmHg 92%
    05:00 +9°C° 0 mm 3 m/s 748 mmHg 93%
    06:00 +9°C° 0 mm 3 m/s 747 mmHg 93%
    07:00 +8°C° 0 mm 4 m/s 747 mmHg 94%
    08:00 +11°C° 0 mm 4 m/s 747 mmHg 87%
    09:00 +13°C° 0 mm 4 m/s 747 mmHg 81%
    10:00 +15°C° 0 mm 5 m/s 746 mmHg 74%
    11:00 +17°C° 0 mm 5 m/s 746 mmHg 69%
    12:00 +19°C° 0 mm 5 m/s 746 mmHg 65%
    13:00 +20°C° 0 mm 5 m/s 746 mmHg 60%
    14:00 +19°C° 0 mm 4 m/s 745 mmHg 63%
    15:00 +19°C° 0 mm 4 m/s 745 mmHg 66%
    16:00 +18°C° 0 mm 3 m/s 745 mmHg 69%
    17:00 +17°C° 0 mm 3 m/s 745 mmHg 73%
    18:00 +16°C° 0 mm 3 m/s 745 mmHg 77%
    19:00 +14°C° 0 mm 3 m/s 745 mmHg 81%
    20:00 +13°C° 0 mm 3 m/s 745 mmHg 81%
    21:00 +14°C° 0 mm 2 m/s 745 mmHg 82%
    22:00 +14°C° 0 mm 2 m/s 745 mmHg 82%
    23:00 +13°C° 0 mm 2 m/s 745 mmHg 81%

    25 Octobre, Vendredi

    Heure Température Précipitation Vent Pression Humidité
    00:00 +13°C° 0 mm 1 m/s 745 mmHg 80%
    01:00 +13°C° 0 mm 1 m/s 745 mmHg 79%
    02:00 +13°C° 0 mm 1 m/s 745 mmHg 78%
    03:00 +13°C° 0 mm 1 m/s 745 mmHg 77%
    04:00 +13°C° 0 mm 1 m/s 745 mmHg 76%
    05:00 +13°C° 0 mm 1 m/s 745 mmHg 76%
    06:00 +13°C° 0 mm 1 m/s 745 mmHg 75%
    07:00 +13°C° 0 mm 1 m/s 745 mmHg 75%
    08:00 +15°C° 0 mm 1 m/s 746 mmHg 67%
    09:00 +18°C° 0 mm 1 m/s 746 mmHg 60%
    10:00 +20°C° 0 mm 1 m/s 746 mmHg 53%
    11:00 +21°C° 0 mm 1 m/s 746 mmHg 49%
    12:00 +22°C° 0 mm 1 m/s 746 mmHg 46%
    13:00 +23°C° 0 mm 1 m/s 746 mmHg 43%
    14:00 +22°C° 0 mm 1 m/s 746 mmHg 47%
    15:00 +20°C° 0 mm 1 m/s 746 mmHg 52%
    16:00 +19°C° 0 mm 1 m/s 746 mmHg 56%
    17:00 +18°C° 0 mm 1 m/s 746 mmHg 59%
    18:00 +16°C° 0 mm 1 m/s 747 mmHg 62%
    19:00 +15°C° 0 mm 1 m/s 747 mmHg 65%
    20:00 +15°C° 0 mm 1 m/s 747 mmHg 66%
    21:00 +14°C° 0 mm 1 m/s 747 mmHg 68%
    22:00 +14°C° 0 mm 1 m/s 747 mmHg 69%
    23:00 +13°C° 0 mm 0 m/s 747 mmHg 70%
    Voir plus